Home > Weather > Fresno > Past weeks

Flag for U.S.A. Weather for the Past 2 Weeks in Fresno, California, U.S.A.

Now
45 °F

Passing clouds.


Feels Like: 44 °F
Forecast: 40 / 63 °F
Wind: 3 mph from Northwest

Location: Fresno Air Terminal

Current Time: Feb 6, 2016 at 1:03:07 AM

Latest Report: Feb 5, 2016 at 11:53 PM


Visibility: 9 mi

Pressure: 30.45 "Hg

Humidity: 86%

Dew point: 41 °F

Location of FresnoLocation

Historic Weather in Fresno — Graph

°F

Fresno Temperature Yesterday

Maximum temperature yesterday: 63 °F (at 2:53 PM)
Minimum temperature yesterday: 37 °F (at 5:53 AM)
Average temperature yesterday: 49 °F

High & Low Weather Summary for the Past Weeks

 TemperatureHumidityPressure
High63 °F (Jan 26, 2:53 PM)97% (Jan 23, 6:53 AM)30.48 "Hg (Jan 23, 6:53 AM)
Low33 °F (Feb 3, 5:53 AM)43% (Feb 5, 2:53 PM)29.68 "Hg (Jan 31, 1:53 PM)
Average49 °F78%30.20 "Hg
* Reported Jan 21 11:53 PM — Feb 5 11:53 PM, Fresno, Weather by CustomWeather, © 2016

Note: Actual official high and low records may vary slightly from our data, if they occured in-between our weather recording intervals... More about our weather records

Advertising

Fresno Weather History for the Previous 24 Hours

 ConditionsComfort  
Time TempWeatherWind HumidityBarometerVisibility
11:53 PM
Fri, Feb 5
45 °FPassing clouds.3 mph86%30.45 "Hg9 mi
10:53 PM46 °FPassing clouds.3 mph83%30.45 "Hg8 mi
9:53 PM46 °FPassing clouds.5 mph83%30.42 "Hg8 mi
8:53 PM51 °FPassing clouds.No wind69%30.41 "Hg8 mi
7:53 PM52 °FPassing clouds.No wind66%30.39 "Hg9 mi
6:53 PM55 °FPassing clouds.No wind62%30.38 "Hg10 mi
5:53 PM57 °FPassing clouds.5 mph58%30.36 "Hg9 mi
4:53 PM61 °FScattered clouds.5 mph48%30.36 "Hg8 mi
3:53 PM63 °FScattered clouds.No wind43%30.38 "Hg10 mi
2:53 PM63 °FScattered clouds.3 mph43%30.40 "Hg9 mi
1:53 PM60 °FPassing clouds.3 mph49%30.42 "Hg10 mi
12:53 PM59 °FPassing clouds.3 mph51%30.42 "Hg10 mi
11:53 AM57 °FPassing clouds.5 mph58%30.45 "Hg10 mi
10:53 AM54 °FSunny.5 mph62%30.46 "Hg10 mi
9:53 AM50 °FSunny.No wind74%30.45 "Hg10 mi
8:53 AM45 °FSunny.No wind82%30.45 "Hg9 mi
7:53 AM40 °FSunny.No wind89%30.45 "Hg9 mi
6:53 AM37 °FPassing clouds.3 mph89%30.45 "Hg10 mi
5:53 AM37 °FPassing clouds.No wind93%30.43 "Hg10 mi
4:53 AM38 °FPassing clouds.No wind90%30.42 "Hg10 mi
3:53 AM38 °FPassing clouds.No wind93%30.42 "Hg10 mi
2:53 AM39 °FPassing clouds.No wind93%30.42 "Hg10 mi
1:53 AM40 °FPassing clouds.3 mph89%30.42 "Hg10 mi
Weather by CustomWeather, © 2016

See weather overviewHow to use our weather pages